User: anonymous   Login
Location: Unspecified
(0.0000°N, 0.0000°E)
Time: 00:52:28
(UTC+00:00)
Language:

CAT - Orbit

View from above orbital plane
View from above orbital plane
View from above satellite
View from above satellite

Ground track
Ground track

The orbit data is extracted from the following two-line orbital elements,

1 12546U 81057C   18265.12405496 +.00008872 +00000-0 +39607-3 0  9995
2 12546 010.1579 227.7386 6125788 156.3665 251.5528 03.91717945293971
Epoch (UTC): 22 September 2018 02:58:38
Eccentricity: 0.6125788
inclination: 10.1579°
perigee height: 207 km
apogee height: 21033 km
right ascension of ascending node: 227.7386°
argument of perigee: 156.3665°
revolutions per day: 3.91717945
mean anomaly at epoch: 251.5528°
orbit number at epoch: 29397

The dashed part of the orbit path shows where the satellite is in the earth's shadow,  

DLR